     2              OBSERVATION DATA    GPS                 RINEX VERSION / TYPE
teqc 1997Jul24 19970902 21:13:44UTC                         PGM / RUN BY / DATE
                                                            COMMENT
BIT 2 OF LLI FLAGS DATA COLLECTED UNDER A-S CONDITION       COMMENT
BIT 2 OF LLI FLAGS DATA COLLECTED UNDER A-S CONDITION       COMMENT
Original Marker Name: 55455.SAND                            COMMENT
Campaign Name: Salt. Tr. Crust. Monit. May-Jun 1986         COMMENT
4-Character Station Name: SAND                              COMMENT
6-Character Antenna Code: TI4100                            COMMENT
Vertical Measurement Point: PAE                             COMMENT
Vertical Offset to Rinex Ref. Point: 0.0000                 COMMENT
Radial Measurement Point: RRP                               COMMENT
Radial Offset to Rinex Ref. Point: 0.0000                   COMMENT
Antenna Height from Field Measurement: 1.2610 m             COMMENT
Original XYZ: -1910692.6283 -3727481.4624 2812642.6184      COMMENT
New XYZ position is based on association with SCEC monument COMMENT
E1F2G8K4+0012. Position of that monument is believed to be  COMMENT
valid to within 1 m horizontally; vertical accuracy         COMMENT
should be no worse than 3-times this value.                 COMMENT
                                                            COMMENT
Revised Rinex header created by UCSD GPS archive for        COMMENT
GSAC on 14-Apr-1999 (1999:104) 17:44:52 GMT                 COMMENT
For assistance contact dagnew@ucsd.edu or hjohnson@ucsd.edu COMMENT
                                                            COMMENT
SAND HILL 1939 1981                                         MARKER NAME
5 NATIONAL GEODETIC SURVEY                                  OBSERVER / AGENCY
UT-16 TI 4100 1.0                                           REC # / TYPE / VERS
4011 TI 4100                                                ANT # / TYPE
 -2336820.0000 -4732587.0000  3570330.0000                  APPROX POSITION XYZ
        1.2610        0.0000        0.0000                  ANTENNA: DELTA H/E/N
     1     1     0                                          WAVELENGTH FACT L1/2
     4    P1    P2    L1    L2                              # / TYPES OF OBSERV
     6                                                      INTERVAL
  1986     6    12     4    35   35.000000                  TIME OF FIRST OBS
  1986     6    12     4    55   59.000000                  TIME OF LAST OBS
     0                                                      # OF SATELLITES
                                                            END OF HEADER
 86  6 12  4 35 35.0800000  0  3G12G13G 7
  21731959.677    21731963.254    45825514.125 9 -60769233.836 9
  22145115.013    22145116.383    73014298.855 9 -83747961.974 9
  24247142.810    24247143.904    15232729.231 9 -38956045.541 8
 86  6 12  4 35 41.0800000  0  3G12G13G 7
  21734722.010    21734723.841    45840022.312 9 -60757928.765 9
  22146987.826    22146987.769    73024142.592 9 -83740291.524 9
  24246461.824    24246462.870    15229149.010 9 -38958834.927 8
 86  6 12  4 35 47.0800000  0  3G12G13G 7
  21737487.099    21737488.395    45854549.879 9 -60746608.579 8
  22148860.855    22148862.013    73033988.312 9 -83732619.541 8
  24245785.816    24245787.390    15225598.812 9 -38961601.315 9
 86  6 12  4 35 53.0800000  0  3G12G13G 7
  21740255.613    21740257.091    45869096.826 9 -60735273.294 9
  22150735.760    22150734.544    73043836.004 9 -83724946.008 8
  24245115.332    24245115.630    15222074.320 9 -38964347.674 8
 86  6 12  4 35 59.0800000  0  3G12G13G 7
  21743026.903    21743028.648    45883663.200 9 -60723922.879 9
  22152608.838    22152610.222    73053685.587 9 -83717271.004 8
  24244449.031    24244449.217    15218572.859 9 -38967076.082 8
 86  6 12  4 36  5.0800000  0  3G12G13G 7
  21745802.018    21745804.125    45898248.875 9 -60712557.415 9
  22154483.848    22154485.133    73063537.138 9 -83709594.472 9
  24243786.494    24243787.909    15215092.306 9 -38969788.197 8
 86  6 12  4 36 11.0800000  0  3G12G13G 7
  21748581.388    21748582.952    45912853.873 9 -60701176.889 8
  22156358.115    22156360.259    73073390.684 9 -83701916.381 9
  24243128.574    24243129.572    15211632.173 9 -38972484.415 8
 86  6 12  4 36 17.0800000  0  3G12G13G 7
  21751365.475    21751365.670    45927478.182 9 -60689781.323 8
  22158234.750    22158235.852    73083246.170 9 -83694236.786 9
  24242474.092    24242474.863    15208195.097 9 -38975162.654 8
 86  6 12  4 36 23.0800000  0  3G12G13G 7
  21754150.458    21754153.005    45942121.857 9 -60678370.677 9
  22160109.285    22160111.101    73093103.707 9 -83686555.587 9
                  24241827.006                   -38977817.615 8
 86  6 12  4 36 29.0800000  0  3G12G13G 7
  21756942.030    21756942.420    45956784.683 9 -60666945.104 8
  22161986.972    22161987.722    73102963.126 9 -83678872.923 8
  24241183.810    24241183.336    15168382.645 9 -38980444.573 8
 86  6 12  4 36 35.0800000  0  3G12G13G 7
  21759735.551    21759737.854    45971466.804 9 -60655504.483 9
  22163862.441    22163863.422    73112824.482 9 -83671188.753 9
  24240549.781    24240550.799    15165048.823 9 -38983042.352 9
 86  6 12  4 36 41.0800000  0  3G12G13G 7
  21762533.637    21762535.741    45986168.196 9 -60644048.853 8
  22165739.998    22165740.564    73122687.854 9 -83663503.006 9
  24239922.049    24239922.579    15161749.158 9 -38985613.519 9
 86  6 12  4 36 47.0800000  0  3G12G13G 7
  21765334.237    21765335.763    46000888.658 9 -60632578.360 8
  22167617.226    22167619.045    73132553.164 9 -83655815.754 9
  24239299.926    24239300.813    15158479.031 9 -38988161.660 9
 86  6 12  4 36 53.0800000  0  3G12G13G 7
  21768138.996    21768141.386    46015628.339 9 -60621092.893 8
  22169494.525    22169496.188    73142420.527 9 -83648126.894 8
  24238681.622    24238682.583    15155234.494 9 -38990689.874 8
 86  6 12  4 36 59.0800000  0  3G12G13G 7
  21770947.023    21770949.097    46030387.151 9 -60609592.525 8
  22171373.063    22171373.890    73152289.793 9 -83640436.554 9
  24238068.988    24238070.576    15152012.980 9 -38993200.143 9
 86  6 12  4 37  5.0800000  0  3G12G13G 7
  21773759.652    21773762.008    46045165.032 9 -60598077.294 8
  22173251.389    22173252.552    73162160.970 9 -83632744.723 9
  24237460.434    24237460.197    15148812.547 9 -38995693.982 9
 86  6 12  4 37 11.0800000  0  3G12G13G 7
  21776575.009    21776577.427    46059962.071 9 -60586547.137 8
  22175130.018    22175130.887    73172034.105 9 -83625051.366 8
  24236855.123    24236856.253    15145632.740 9 -38998171.755 8
 86  6 12  4 37 17.0800000  0  3G12G13G 7
  21779394.712    21779396.243    46074778.108 9 -60575002.176 8
  22177009.467    22177010.999    73181909.184 9 -83617356.501 9
  24236254.983    24236255.827    15142476.083 9 -39000631.498 8
 86  6 12  4 37 23.0800000  0  3G12G13G 7
  21782217.897    21782219.637    46089613.188 9 -60563442.373 8
  22178887.944    22178890.653    73191786.273 9 -83609660.073 9
                  24235660.738                   -39003067.794 8
 86  6 12  4 37 29.0800000  0  3G12G13G 7
  21785044.239    21785045.550    46104467.323 9 -60551867.724 8
  22180769.520    22180770.966    73201665.245 9 -83601962.161 8
  24235071.775    24235071.930    15102942.265 9 -39005475.760 9
 86  6 12  4 37 35.0800000  0  3G12G13G 7
  21787875.556    21787876.776    46119340.489 9 -60540278.241 9
  22182648.902    22182651.076    73211546.106 9 -83594262.791 8
  24234490.806    24234491.264    15099889.538 9 -39007854.507 8
 86  6 12  4 37 41.0800000  0  3G12G13G 7
  21790708.647    21790710.483    46134232.584 9 -60528674.019 8
  22184529.623    22184530.566    73221428.878 9 -83586561.937 8
  24233916.153    24233916.815    15096870.891 9 -39010206.697 9
 86  6 12  4 37 47.0800000  0  3G12G13G 7
  21793546.136    21793547.013    46149143.615 9 -60517055.031 7
  22186410.833    22186412.105    73231313.523 9 -83578859.608 8
  24233347.587    24233349.205    15093881.686 9 -39012535.934 8
 86  6 12  4 37 53.0800000  0  3G12G13G 7
  21796386.139    21796388.790    46164073.583 9 -60505421.293 9
  22188292.104    22188293.076    73241200.099 9 -83571155.786 9
  24232783.633    24232783.648    15090918.028 9 -39014845.288 9
 86  6 12  4 37 59.0800000  0  3G12G13G 7
  21799231.241    21799233.553    46179022.410 9 -60493772.861 9
  22190173.679    22190174.741    73251088.543 9 -83563450.498 8
  24232224.618    24232223.742    15087977.231 9 -39017136.806 9
 86  6 12  4 38  5.0800000  0  3G12G13G 7
  21802078.985    21802081.769    46193990.162 9 -60482109.684 8
  22192055.686    22192056.746    73260978.991 9 -83555743.658 9
  24231667.974    24231669.638    15085057.385 9 -39019412.017 8
 86  6 12  4 38 11.0800000  0  3G12G13G 7
  21804931.498    21804932.991    46208976.737 9 -60470431.824 9
  22193938.927    22193937.945    73270871.265 9 -83548035.401 8
  24231116.486    24231117.417    15082158.184 9 -39021671.136 9
 86  6 12  4 38 17.0800000  0  3G12G13G 7
  21807787.231    21807789.124    46223982.124 9 -60458739.313 8
  22195820.472    22195821.891    73280765.481 8 -83540325.605 8
  24230569.244    24230570.281    15079282.659 9 -39023911.799 8
 86  6 12  4 38 23.0800000  0  3G12G13G 7
  21810646.242    21810648.320    46239006.387 9 -60447032.104 8
  22197704.151    22197704.178    73290661.589 9 -83532614.368 8
                  24230028.104                   -39026128.734 9
 86  6 12  4 38 29.0800000  0  3G12G13G 7
  21813508.319    21813510.331    46254049.350 9 -60435310.310 9
  22199587.963    22199588.846    73300559.542 9 -83524901.672 9
  24229494.378    24229494.407    15040027.406 9 -39028317.307 9
 86  6 12  4 38 35.0800000  0  3G12G13G 7
  21816375.027    21816377.549    46269111.121 9 -60423573.867 9
  22201471.616    22201471.363    73310459.447 9 -83517187.459 8
  24228966.018    24228966.634    15037256.334 9 -39030476.590 9
 86  6 12  4 38 41.0800000  0  3G12G13G 7
  21819244.378    21819245.360    46284191.619 9 -60411822.831 8
  22203355.622    22203355.906    73320361.275 9 -83509471.745 8
  24228445.596    24228446.802    15034519.730 9 -39032609.387 9
 86  6 12  4 38 47.0800000  0  3G12G13G 7
  21822117.664    21822120.763    46299290.856 9 -60400057.194 9
  22205240.252    22205241.465    73330265.029 9 -83501754.549 8
  24227930.404    24227930.647    15031811.768 9 -39034719.485 9
 86  6 12  4 38 53.0800000  0  3G12G13G 7
  21824993.955    21824996.090    46314408.732 8 -60388277.021 9
  22207124.463    22207125.667    73340170.656 9 -83494035.871 9
  24227420.105    24227420.428    15029129.285 9 -39036809.729 8
 86  6 12  4 38 59.0800000  0  3G12G13G 7
  21827874.242    21827878.057    46329545.219 9 -60376482.356 8
  22209010.330    22209011.355    73350078.159 9 -83486315.737 9
  24226913.069    24226913.483    15026469.628 9 -39038882.181 9
 86  6 12  4 39  5.0800000  0  3G12G13G 7
  21830758.537    21830761.598    46344700.350 9 -60364673.169 8
  22210896.766    22210897.285    73359987.602 8 -83478594.085 8
  24226411.895    24226411.464    15023830.998 9 -39040938.257 7
 86  6 12  4 39 11.0800000  0  3G12G13G 7
  21833647.090    21833648.811    46359874.118 9 -60352849.456 8
  22212783.354    22212782.863    73369898.897 9 -83470871.005 8
  24225912.725    24225913.816    15021213.090 9 -39042978.187 9
 86  6 12  4 39 17.0800000  0  3G12G13G 7
  21836537.375    21836539.612    46375066.536 9 -60341011.208 8
  22214668.989    22214668.762    73379812.018 9 -83463146.499 8
  24225419.622    24225419.999    15018619.053 9 -39044999.509 8
 86  6 12  4 39 23.0800000  0  3G12G13G 7
  21839432.707    21839433.618    46390277.496 9 -60329158.501 7
  22216555.195    22216557.966    73389726.886 9 -83455420.628 8
                  24224932.574                   -39046996.893 8
 86  6 12  4 39 29.0800000  0  3G12G13G 7
  21842330.337    21842332.145    46405506.986 9 -60317291.366 8
  22218443.534    22218442.484    73399643.588 9 -83447693.317 9
  24224451.674    24224450.814    14979640.031 9 -39048965.738 9
 86  6 12  4 39 35.0800000  0  3G12G13G 7
  21845232.180    21845233.295    46420754.941 9 -60305409.839 9
  22220330.586    22220331.243    73409562.311 9 -83439964.448 8
  24223977.705    24223978.627    14977150.674 9 -39050905.497 9
 86  6 12  4 39 41.0800000  0  3G12G13G 7
  21848136.803    21848139.416    46436021.314 9 -60293513.964 8
  22222218.254    22222218.349    73419482.878 8 -83432234.139 8
  24223509.761    24223510.161    14974695.055 9 -39052818.961 9
 86  6 12  4 39 47.0800000  0  3G12G13G 7
  21851045.714    21851047.940    46451306.094 9 -60281603.749 8
  22224107.024    22224108.635    73429405.320 9 -83424502.367 8
  24223048.441    24223048.995    14972268.716 9 -39054709.607 8
 86  6 12  4 39 53.0800000  0  3G12G13G 7
  21853956.914    21853959.938    46466609.374 9 -60269679.117 9
  22225994.970    22225995.564    73439329.557 9 -83416769.188 8
  24222591.123    24222592.800    14969867.747 9 -39056580.495 8
 86  6 12  4 39 59.0800000  0  3G12G13G 7
  21856872.765    21856874.644    46481931.040 9 -60257740.164 8
  22227882.909    22227883.813    73449255.751 9 -83409034.500 8
  24222139.411    24222138.834    14967489.615 9 -39058433.571 9
 86  6 12  4 40  5.0800000  0  3G12G13G 7
  21859792.814    21859793.986    46497271.175 9 -60245786.813 9
  22229772.663    22229774.515    73459183.848 9 -83401298.312 8
  24221690.474    24221691.046    14965132.494 9 -39060270.290 9
 86  6 12  4 40 11.0800000  0  3G12G13G 7
  21862714.579    21862716.992    46512629.667 9 -60233819.140 8
  22231662.828    22231663.582    73469113.749 9 -83393560.733 8
  24221246.063    24221246.632    14962796.029 9 -39062090.906 9
 86  6 12  4 40 17.0800000  0  3G12G13G 7
  21865641.328    21865642.630    46528006.534 9 -60221837.174 8
  22233551.883    22233552.716    73479045.534 9 -83385821.668 8
  24220805.867    24220806.974    14960483.786 9 -39063892.656 9
 86  6 12  4 40 23.0800000  0  3G12G13G 7
  21868570.873    21868573.248    46543401.657 9 -60209840.978 9
  22235442.440    22235443.300    73488979.139 9 -83378081.203 8
                  24220372.021                   -39065670.098 8
 86  6 12  4 40 29.0800000  0  3G12G13G 7
  21871503.409    21871506.003    46558815.085 9 -60197830.511 8
  22237334.071    22237334.544    73498914.613 9 -83370339.264 9
  24219944.766    24219945.161    14921784.957 9 -39067418.874 9
 86  6 12  4 40 35.0800000  0  3G12G13G 7
  21874440.299    21874441.429    46574246.800 9 -60185805.794 8
  22239223.844    22239225.411    73508851.950 9 -83362595.888 8
  24219524.027    24219524.448    14919578.064 9 -39069138.520 8
 86  6 12  4 40 41.0800000  0  3G12G13G 7
  21877380.252    21877382.559    46589696.725 9 -60173766.902 8
  22241115.704    22241117.269    73518791.095 9 -83354851.095 8
  24219111.211    24219111.016    14917404.291 9 -39070831.971 9
 86  6 12  4 40 47.0800000  0  3G12G13G 7
  21880324.125    21880325.789    46605164.931 9 -60161713.749 9
  22243006.493    22243008.912    73528732.100 9 -83347104.857 9
  24218702.704    24218703.542    14915260.097 9 -39072502.778 9
 86  6 12  4 40 53.0800000  0  3G12G13G 7
  21883270.797    21883273.721    46620651.362 9 -60149646.401 8
  22244899.828    22244901.533    73538674.859 9 -83339357.249 8
  24218299.487    24218300.905    14913141.102 9 -39074153.941 8
 86  6 12  4 40 59.0800000  0  3G12G13G 7
  21886220.537    21886223.552    46636155.999 9 -60137564.865 9
  22246792.401    22246792.720    73548619.498 9 -83331608.187 9
  24217900.420    24217901.393    14911044.958 9 -39075787.289 9
 86  6 12  4 41  5.0800000  0  3G12G13G 7
  21889175.438    21889177.302    46651678.779 8 -60125469.195 7
  22248684.473    22248685.374    73558565.930 9 -83323857.709 8
  24217506.185    24217506.438    14908969.648 9 -39077404.409 9
 86  6 12  4 41 11.0800000  0  3G12G13G 7
  21892132.414    21892133.391    46667219.579 9 -60113359.480 8
  22250577.376    22250578.473    73568514.190 9 -83316105.816 9
  24217114.812    24217115.337    14906915.205 9 -39079005.270 9
 86  6 12  4 41 17.0800000  0  3G12G13G 7
  21895092.967    21895094.440    46682778.493 9 -60101235.650 8
  22252470.826    22252471.629    73578464.320 8 -83308352.463 9
  24216728.893    24216729.092    14904885.172 9 -39080587.111 9
 86  6 12  4 41 23.0800000  0  3G12G13G 7
  21898055.742    21898059.915    46698355.533 9 -60089097.691 8
  22254364.946    22254365.149    73588416.241 9 -83300597.713 7
                  24216348.990                   -39082144.443 8
 86  6 12  4 41 29.0800000  0  3G12G13G 7
  21901024.852    21901028.328    46713950.625 9 -60076945.677 8
  22256258.964    22256258.481    73598369.926 9 -83292841.605 8
  24215975.153    24215975.700    14866463.977 9 -39083672.968 9
 86  6 12  4 41 35.0800000  0  3G12G13G 7
  21903995.831    21903997.867    46729563.741 8 -60064779.616 8
  22258154.240    22258154.789    73608325.436 8 -83285084.055 8
  24215609.041    24215609.722    14864539.669 9 -39085172.425 9
 86  6 12  4 41 41.0800000  0  3G12G13G 7
  21906970.159    21906972.500    46745194.820 9 -60052599.559 9
  22260048.487    22260048.672    73618282.831 9 -83277325.045 8
  24215248.752    24215249.894    14862648.918 9 -39086645.732 9
 86  6 12  4 41 47.0800000  0  3G12G13G 7
  21909949.032    21909950.701    46760843.906 9 -60040405.459 9
  22261944.266    22261944.233    73628241.985 9 -83269564.667 9
  24214894.677    24214894.826    14860787.070 9 -39088096.517 9
 86  6 12  4 41 53.0800000  0  3G12G13G 7
  21912929.432    21912932.765    46776510.959 8 -60028197.370 8
  22263838.829    22263839.001    73638202.918 9 -83261802.904 7
  24214545.030    24214546.082    14858950.461 9 -39089527.630 8
 86  6 12  4 41 59.0800000  0  3G12G13G 7
  21915914.416    21915915.898    46792196.044 8 -60015975.224 9
  22265735.110    22265736.007    73648165.786 9 -83254039.624 8
  24214200.153    24214200.499    14857136.633 9 -39090941.006 9
 86  6 12  4 42  5.0800000  0  3G12G13G 7
  21918901.793    21918905.623    46807898.960 9 -60003739.182 8
  22267630.063    22267631.562    73658130.332 9 -83246275.052 9
  24213858.678    24213860.112    14855343.532 9 -39092338.223 9
 86  6 12  4 42 11.0800000  0  3G12G13G 7
  21921894.456    21921896.978    46823619.779 8 -59991489.198 8
  22269527.365    22269527.821    73668096.722 9 -83238509.025 8
  24213521.236    24213522.014    14853571.344 9 -39093719.143 8
 86  6 12  4 42 17.0800000  0  3G12G13G 7
  21924889.265    21924891.663    46839358.484 9 -59979225.275 9
  22271424.469    22271425.793    73678064.896 9 -83230741.608 8
                  24213190.109                   -39095080.820 8
 86  6 12  4 42 23.0800000  0  3G12G13G 7
  21927887.785    21927890.012    46855114.966 9 -59966947.498 8
  22273321.216    22273321.678    73688034.909 9 -83222972.766 9
  24212899.817    24212863.157    14815368.217 9 -39096417.749 8
 86  6 12  4 42 29.0800000  0  3G12G13G 7
  21930889.143    21930891.832    46870889.253 9 -59954655.843 8
  22275219.029    22275220.567    73698006.739 9 -83215202.515 9
  24212542.865    24212544.217    14813689.688 9 -39097725.621 9
 86  6 12  4 42 35.0800000  0  3G12G13G 7
  21933893.754    21933896.086    46886681.327 9 -59942350.333 7
  22277117.416    22277117.788    73707980.404 9 -83207430.827 8
  24212230.735    24212231.442    14812048.367 9 -39099004.570 9
 86  6 12  4 42 41.0800000  0  3G12G13G 7
  21936902.514    21936905.041    46902491.180 9 -59930030.961 9
  22279014.454    22279017.159    73717955.887 9 -83199657.728 8
  24211925.394    24211926.874    14810440.472 9 -39100257.467 9
 86  6 12  4 42 47.0800000  0  3G12G13G 7
  21939915.338    21939917.174    46918318.728 9 -59917697.823 9
  22280913.539    22280915.647    73727933.107 9 -83191883.263 9
  24211624.945    24211625.409    14808861.267 9 -39101488.020 9
 86  6 12  4 42 53.0800000  0  3G12G13G 7
  21942930.362    21942932.675    46934163.938 9 -59905350.895 9
  22282813.021    22282813.566    73737912.140 9 -83184107.392 8
  24211328.622    24211329.860    14807307.088 9 -39102699.064 9
 86  6 12  4 42 59.0800000  0  3G12G13G 7
  21945948.180    21945951.170    46950026.896 9 -59892990.144 8
  22284712.198    22284712.623    73747893.108 9 -83176330.014 9
  24211036.895    24211037.301    14805775.665 9 -39103892.383 8
 86  6 12  4 43  5.0800000  0  3G12G13G 7
  21948970.362    21948972.565    46965907.471 9 -59880615.676 8
  22286611.391    22286613.449    73757875.674 9 -83168551.383 7
  24210750.187    24210751.358    14804265.091 9 -39105069.445 9
 86  6 12  4 43 11.0800000  0  3G12G13G 7
  21951996.055    21951997.242    46981805.779 9 -59868227.389 9
  22288511.854    22288512.710    73767860.134 9 -83160771.283 8
  24210466.734    24210467.012    14802775.529 9 -39106230.147 9
 86  6 12  4 43 17.0800000  0  3G12G13G 7
  21955025.078    21955026.575    46997721.615 8 -59855825.435 9
  22290412.133    22290413.432    73777846.331 9 -83152989.825 9
                  24210187.805                   -39107371.457 9
 86  6 12  4 43 23.0800000  0  3G12G13G 7
  21958057.548    21958059.217    47013655.122 8 -59843409.714 8
  22292312.962    22292312.979    73787834.330 8 -83145206.966 8
  24209895.000    24209916.993    14764855.113 9 -39108487.869 8
 86  6 12  4 43 29.0800000  0  3G12G13G 7
  21961092.075    21961094.368    47029606.131 9 -59830980.351 8
  22294212.972    22294214.946    73797824.028 8 -83137422.776 8
  24209649.572    24209650.699    14763459.928 9 -39109575.025 9
 86  6 12  4 43 35.0800000  0  3G12G13G 7
  21964130.786    21964132.592    47045574.639 9 -59818537.368 8
  22296115.940    22296115.442    73807815.519 9 -83129637.203 8
  24209390.650    24209392.173    14762101.829 9 -39110633.285 9
 86  6 12  4 43 41.0800000  0  3G12G13G 7
  21967172.752    21967174.125    47061560.715 9 -59806080.685 8
  22298017.217    22298018.446    73817808.903 9 -83121850.148 9
  24209139.617    24209139.584    14760777.008 9 -39111665.608 8
 86  6 12  4 43 47.0800000  0  3G12G13G 7
  21970218.960    21970220.037    47077564.213 9 -59793610.413 8
  22299918.240    22299919.832    73827803.968 9 -83114061.792 8
  24208891.909    24208893.100    14759480.664 9 -39112675.738 8
 86  6 12  4 43 53.0800000  0  3G12G13G 7
  21973266.651    21973268.945    47093585.193 9 -59781126.542 8
  22301820.213    22301821.774    73837800.790 9 -83106272.040 8
  24208650.427    24208651.113    14758209.326 9 -39113666.385 9
 86  6 12  4 43 59.0800000  0  3G12G13G 7
  21976318.826    21976321.248    47109623.600 9 -59768629.079 8
  22303723.737    22303724.673    73847799.358 9 -83098480.953 8
  24208412.653    24208413.546    14756960.513 9 -39114639.492 8
 86  6 12  4 44  5.0800000  0  3G12G13G 7
  21979373.828    21979377.281    47125679.380 9 -59756118.089 9
  22305626.903    22305628.048    73857799.690 9 -83090688.481 9
  24208179.176    24208179.710    14755732.678 9 -39115596.248 9
 86  6 12  4 44 11.0800000  0  3G12G13G 7
  21982431.808    21982434.946    47141752.536 9 -59743593.548 8
  22307529.427    22307530.404    73867801.800 9 -83082894.624 9
  24207949.342    24207949.907    14754525.935 9 -39116536.561 9
 86  6 12  4 44 17.0800000  0  3G12G13G 7
  21985494.443    21985496.082    47157843.035 9 -59731055.504 8
  22309433.095    22309434.214    73877805.644 9 -83075099.415 9
                  24207725.707                   -39117457.308 8
 86  6 12  4 44 23.0800000  0  3G12G13G 7
  21988559.543    21988561.160    47173950.937 8 -59718503.887 7
  22311338.023    22311337.569    73887811.315 8 -83067302.789 8
  24207455.868    24207507.181    14716886.687 9 -39118352.884 8
 86  6 12  4 44 29.0800000  0  3G12G13G 7
  21991628.698    21991630.624    47190076.123 9 -59705938.816 8
  22313242.564    22313243.171    73897818.755 9 -83059504.779 9
  24207293.843    24207295.531    14715774.876 9 -39119219.078 9
 86  6 12  4 44 35.0800000  0  3G12G13G 7
  21994700.133    21994701.893    47206218.630 9 -59693360.237 9
  22315145.972    22315148.358    73907827.960 9 -83051705.397 8
  24207089.618    24207090.571    14714700.821 9 -39120056.388 8
 86  6 12  4 44 41.0800000  0  3G12G13G 7
  21997774.868    21997777.939    47222378.349 9 -59680768.241 9
  22317052.313    22317052.502    73917838.900 9 -83043904.661 9
  24206892.212    24206892.584    14713659.254 9 -39120868.009 9
 86  6 12  4 44 47.0800000  0  3G12G13G 7
  22000854.908    22000855.465    47238555.237 8 -59668162.892 8
  22318957.778    22318958.148    73927851.596 8 -83036102.560 9
  24206698.707    24206699.656    14712645.960 9 -39121657.584 9
 86  6 12  4 44 53.0800000  0  3G12G13G 7
  22003934.861    22003937.455    47254749.341 9 -59655544.102 8
  22320861.834    22320863.392    73937866.103 9 -83028299.047 8
  24206510.533    24206511.610    14711657.634 9 -39122427.711 9
 86  6 12  4 44 59.0800000  0  3G12G13G 7
  22007020.586    22007022.021    47270960.565 9 -59642911.974 8
  22322768.446    22322771.028    73947882.267 9 -83020494.242 9
  24206327.261    24206327.179    14710691.764 9 -39123180.332 9
 86  6 12  4 45  5.0800000  0  3G12G13G 7
  22010108.557    22010110.784    47287189.053 9 -59630266.407 8
  22324674.743    22324675.792    73957900.200 9 -83012688.048 9
  24206147.063    24206148.684    14709746.791 9 -39123916.679 8
 86  6 12  4 45 11.0800000  0  3G12G13G 7
  22013199.195    22013201.627    47303434.657 8 -59617607.492 9
  22326582.920    22326581.949    73967919.893 9 -83004880.500 8
  24205971.476    24205971.788    14708823.007 9 -39124636.504 8
 86  6 12  4 45 17.0800000  0  3G12G13G 7
  22016295.346    22016297.554    47319697.370 9 -59604935.246 8
  22328488.975    22328491.017    73977941.408 9 -82997071.530 9
                  24205800.671                   -39125336.440 8
 86  6 12  4 45 23.0800000  0  3G12G13G 7
  22019392.404    22019394.044    47335977.146 9 -59592249.703 9
  22330397.015    22330396.091    73987964.701 8 -82989261.167 8
  24205687.691    24205636.407    14671690.874 9 -39126011.277 8
 86  6 12  4 45 29.0800000  0  3G12G13G 7
  22022493.902    22022495.705    47352273.863 8 -59579550.969 8
  22332303.473    22332305.276    73997989.609 9 -82981449.550 8
  24205478.134    24205478.343    14670862.376 9 -39126656.751 8
 86  6 12  4 45 35.0800000  0  3G12G13G 7
  22025597.791    22025599.388    47368587.711 9 -59566838.874 9
  22334211.553    22334213.351    74008016.326 9 -82973636.514 9
  24205327.458    24205328.592    14670070.881 9 -39127273.491 8
 86  6 12  4 45 41.0800000  0  3G12G13G 7
  22028704.941    22028707.402    47384918.485 9 -59554113.601 8
  22336120.408    22336121.852    74018044.694 9 -82965822.207 8
  24205182.470    24205182.739    14669312.343 9 -39127864.560 9
 86  6 12  4 45 47.0800000  0  3G12G13G 7
  22031817.138    22031817.724    47401266.285 9 -59541375.050 8
  22338029.004    22338029.327    74028074.750 8 -82958006.573 9
  24205043.637    24205044.369    14668582.025 9 -39128433.634 9
 86  6 12  4 45 53.0800000  0  3G12G13G 7
  22034930.761    22034932.492    47417631.003 9 -59528623.320 8
  22339937.722    22339938.232    74038106.465 9 -82950189.646 9
  24204909.883    24204909.715    14667876.556 9 -39128983.360 9
 86  6 12  4 45 59.0800000  0  3G12G13G 7
  22038048.925    22038049.282    47434012.637 9 -59515858.406 8
  22341846.964    22341848.614    74048139.938 9 -82942371.346 9
  24204780.037    24204780.961    14667193.647 9 -39129515.499 8
 86  6 12  4 46  5.0800000  0  3G12G13G 7
  22041168.725    22041169.850    47450411.200 8 -59503080.313 8
  22343756.137    22343758.035    74058175.128 9 -82934551.719 8
  24204653.409    24204654.253    14666531.607 9 -39130031.372 9
 86  6 12  4 46 11.0800000  0  3G12G13G 7
  22044292.756    22044294.081    47466826.583 9 -59490289.106 9
  22345665.967    22345666.605    74068212.058 8 -82926730.723 8
  24204531.135    24204532.772    14665890.844 9 -39130530.670 8
 86  6 12  4 46 17.0800000  0  3G12G13G 7
  22047418.360    22047420.935    47483258.864 9 -59477484.738 8
  22347577.303    22347576.734    74078250.730 9 -82918908.379 9
                  24204415.412                   -39131009.898 8
 86  6 12  4 46 23.0800000  0  3G12G13G 7
  22050549.507    22050551.634    47499707.973 9 -59464667.244 8
  22349487.496    22349489.644    74088291.141 9 -82911084.679 8
  24204281.714    24204303.879    14629044.868 9 -39131463.667 8
 86  6 12  4 46 29.0800000  0  3G12G13G 7
  22053683.249    22053684.345    47516173.903 9 -59451836.647 8
  22351398.676    22351400.323    74098333.287 8 -82903259.634 9
  24204201.064    24204200.951    14628500.067 9 -39131887.887 8
 86  6 12  4 46 35.0800000  0  3G12G13G 7
  22056819.136    22056821.016    47532656.627 9 -59438992.963 9
  22353310.327    22353312.266    74108377.229 9 -82895433.177 9
  24204104.215    24204104.790    14627992.430 9 -39132283.464 9
 86  6 12  4 46 41.0800000  0  3G12G13G 7
  22059958.707    22059961.044    47549156.062 9 -59426136.266 8
  22355221.916    22355222.706    74118422.789 9 -82887605.469 8
  24204013.769    24204014.587    14627517.382 9 -39132653.631 9
 86  6 12  4 46 47.0800000  0  3G12G13G 7
  22063102.070    22063103.791    47565672.255 9 -59413266.503 9
  22357133.589    22357134.441    74128470.102 9 -82879776.396 9
  24203928.494    24203928.990    14627070.484 9 -39133001.863 9
 86  6 12  4 46 53.0800000  0  3G12G13G 7
  22066248.980    22066250.516    47582205.193 9 -59400383.692 8
  22359044.848    22359047.756    74138519.106 9 -82871946.001 8
  24203848.501    24203849.074    14626648.137 9 -39133330.972 9
 86  6 12  4 46 59.0800000  0  3G12G13G 7
  22069398.544    22069399.902    47598754.770 9 -59387487.918 8
  22360960.005    22360958.662    74148569.788 9 -82864114.296 8
  24203771.918    24203772.287    14626248.269 9 -39133642.553 9
 86  6 12  4 47  5.0800000  0  3G12G13G 7
  22072549.895    22072551.359    47615321.058 9 -59374579.120 8
  22362871.687    22362872.573    74158622.216 8 -82856281.225 9
  24203699.841    24203700.831    14625869.124 9 -39133938.000 8
 86  6 12  4 47 11.0800000  0  3G12G13G 7
  22075706.155    22075707.194    47631903.924 8 -59361657.412 8
  22364784.243    22364785.969    74168676.291 9 -82848446.887 9
  24203632.081    24203632.219    14625511.217 9 -39134216.887 8
 86  6 12  4 47 17.0800000  0  3G12G13G 7
  22078864.638    22078866.092    47648503.365 8 -59348722.772 8
  22366698.113    22366700.252    74178732.080 8 -82840611.208 9
                  24203569.104                   -39134475.528 8
 86  6 12  4 47 23.0800000  0  3G12G13G 7
  22082026.830    22082027.622    47665119.392 8 -59335775.224 8
  22368611.490    22368613.158    74188789.570 9 -82832774.200 9
  24203505.045    24203512.414    14588707.714 9 -39134708.342 8
 86  6 12  4 47 29.0800000  0  3G12G13G 7
  22085191.871    22085193.292    47681751.927 9 -59322814.812 7
  22370526.526    22370526.592    74198848.730 9 -82824935.892 9
  24203461.787    24203462.659    14588446.597 9 -39134911.658 8
 86  6 12  4 47 35.0800000  0  3G12G13G 7
  22088360.761    22088360.336    47698400.952 9 -59309841.542 8
  22372439.372    22372441.621    74208909.610 9 -82817096.249 9
  24203419.370    24203419.380    14588222.388 9 -39135086.369 9
 86  6 12  4 47 41.0800000  0  3G12G13G 7
  22091531.573    22091532.379    47715066.391 9 -59296855.481 8
  22374356.071    22374356.755    74218972.118 9 -82809255.328 9
  24203382.660    24203384.010    14588030.597 9 -39135235.822 8
 86  6 12  4 47 47.0800000  0  3G12G13G 7
  22094705.815    22094706.368    47731748.321 9 -59283856.572 8
  22376269.556    22376271.966    74229036.504 9 -82801412.937 9
  24203351.925    24203352.349    14587866.929 9 -39135363.354 9
 86  6 12  4 47 53.0800000  0  3G12G13G 7
  22097882.837    22097883.962    47748446.605 9 -59270844.925 8
  22378186.507    22378187.245    74239102.599 9 -82793569.232 8
  24203325.235    24203324.604    14587727.937 9 -39135471.655 9
 86  6 12  4 47 59.0800000  0  3G12G13G 7
  22101063.131    22101065.983    47765161.307 9 -59257820.503 8
  22380101.678    22380102.614    74249170.349 8 -82785724.226 8
  24203303.011    24203303.228    14587611.078 9 -39135562.715 9
 86  6 12  4 48  5.0800000  0  3G12G13G 7
  22104247.537    22104249.416    47781892.329 9 -59244783.329 8
  22382017.398    22382018.387    74259239.724 9 -82777877.964 9
  24203285.158    24203286.504    14587515.077 9 -39135637.527 9
 86  6 12  4 48 11.0800000  0  3G12G13G 7
  22107433.932    22107436.665    47798639.782 9 -59231733.362 8
  22383934.856    22383936.557    74269310.942 9 -82770030.257 8
  24203270.734    24203271.355    14587440.644 9 -39135695.526 8
 86  6 12  4 48 17.0800000  0  3G12G13G 7
  22110624.295    22110627.424    47815403.569 9 -59218670.675 8
  22385850.812    22385851.589    74279383.810 9 -82762181.267 8
                  24203260.874                   -39135733.180 8
 86  6 12  4 48 23.0800000  0  3G12G13G 7
  22113816.914    22113820.224    47832183.592 9 -59205595.342 8
  22387768.050    22387769.481    74289458.279 9 -82754331.033 9
  24203192.920    24203258.957    14550920.627 9 -39135745.070 9
 86  6 12  4 48 29.0800000  0  3G12G13G 7
  22117013.812    22117015.753    47848980.018 9 -59192507.210 8
  22389685.412    22389687.023    74299534.528 8 -82746479.410 9
  24203262.237    24203263.959    14550943.271 9 -39135727.381 9
 86  6 12  4 48 35.0800000  0  3G12G13G 7
  22120213.052    22120214.793    47865792.673 9 -59179406.442 8
  22391603.847    22391605.031    74309612.485 8 -82738626.450 9
  24203273.946    24203275.555    14551001.913 9 -39135681.287 9
 86  6 12  4 48 41.0800000  0  3G12G13G 7
  22123415.702    22123416.655    47882621.556 9 -59166293.034 8
  22393522.098    22393523.427    74319692.152 9 -82730772.168 9
  24203291.183    24203292.166    14551093.530 9 -39135609.907 8
 86  6 12  4 48 47.0800000  0  3G12G13G 7
  22126620.374    22126623.116    47899466.688 9 -59153166.957 9
  22395439.024    22395440.806    74329773.521 9 -82722916.558 8
  24203314.294    24203314.889    14551212.824 9 -39135516.956 7
 86  6 12  4 48 53.0800000  0  3G12G13G 7
  22129829.368    22129831.743    47916327.942 9 -59140028.313 8
  22397359.962    22397360.839    74339856.558 9 -82715059.649 9
  24203341.506    24203342.358    14551356.673 9 -39135404.860 9
 86  6 12  4 48 59.0800000  0  3G12G13G 7
  22133041.853    22133043.546    47933205.422 9 -59126877.020 9
  22399278.204    22399278.097    74349941.347 9 -82707201.354 8
  24203373.104    24203373.141    14551522.607 9 -39135275.564 8
 86  6 12  4 49  5.0800000  0  3G12G13G 7
  22136255.688    22136257.887    47950099.020 9 -59113713.187 9
  22401197.199    22401198.054    74360027.773 9 -82699341.818 8
  24203409.089    24203409.863    14551709.291 9 -39135130.088 8
 86  6 12  4 49 11.0800000  0  3G12G13G 7
  22139474.446    22139475.700    47967008.721 9 -59100536.789 7
  22403117.682    22403119.317    74370115.850 9 -82691480.964 9
  24203448.857    24203450.570    14551917.601 9 -39134967.779 9
 86  6 12  4 49 17.0800000  0  3G12G13G 7
  22142695.378    22142696.957    47983934.491 9 -59087347.881 8
  22405036.969    22405038.354    74380205.643 9 -82683618.800 8
                  24203493.506                   -39134784.806 8
 86  6 12  4 49 23.0800000  0  3G12G13G 7
  22145918.929    22145921.218    48000876.226 9 -59074146.528 9
  22406957.520    22406957.645    74390297.051 9 -82675755.359 8
  24203441.175    24203543.815    14515679.762 9 -39134575.772 9
 86  6 12  4 49 29.0800000  0  3G12G13G 7
  22149145.824    22149148.247    48017833.936 9 -59060932.726 8
  22408878.364    22408878.911    74400390.119 9 -82667890.633 8
  24203602.035    24203603.030    14515985.829 9 -39134337.208 9
 86  6 12  4 49 35.0800000  0  3G12G13G 7
  22152375.824    22152376.305    48034807.668 9 -59047706.439 8
  22410798.988    22410800.176    74410484.841 9 -82660024.619 8
  24203667.251    24203668.086    14516328.265 9 -39134070.373 9
 86  6 12  4 49 41.0800000  0  3G12G13G 7
  22155609.592    22155610.402    48051797.396 9 -59034467.690 8
  22412720.202    22412720.333    74420581.278 9 -82652157.264 9
  24203739.014    24203740.715    14516702.894 9 -39133778.460 9
 86  6 12  4 49 47.0800000  0  3G12G13G 7
  22158844.923    22158846.340    48068803.067 9 -59021216.513 8
  22414642.259    22414643.882    74430679.410 9 -82644288.601 8
  24203815.258    24203815.386    14517105.174 9 -39133464.996 9
 86  6 12  4 49 53.0800000  0  3G12G13G 7
  22162083.728    22162084.949    48085824.690 8 -59007952.920 8
  22416564.806    22416566.127    74440779.250 8 -82636418.589 8
  24203896.681    24203896.525    14517531.803 9 -39133132.555 8
 86  6 12  4 49 59.0800000  0  3G12G13G 7
  22165325.810    22165327.851    48102862.198 9 -58994676.937 8
  22418486.879    22418487.109    74450880.747 9 -82628547.292 8
  24203982.127    24203981.631    14517980.427 9 -39132782.989 8
 86  6 12  4 50  5.0800000  0  3G12G13G 7
  22168572.218    22168574.092    48119915.516 9 -58981388.632 8
  22420408.945    22420410.397    74460983.886 9 -82620674.715 8
  24204071.662    24204072.129    14518449.763 9 -39132417.271 9
 86  6 12  4 50 11.0800000  0  3G12G13G 7
  22171819.398    22171821.247    48136984.752 9 -58968087.942 9
  22422330.788    22422334.242    74471088.771 9 -82612800.779 9
  24204164.945    24204165.726    14518940.835 9 -39132034.614 8
 86  6 12  4 50 17.0800000  0  3G12G13G 7
  22175070.546    22175072.754    48154069.719 9 -58954774.968 8
  22424254.626    22424255.851    74481195.286 9 -82604925.575 9
                  24204264.026                   -39131631.213 8
 86  6 12  4 50 23.0800000  0  3G12G13G 7
  22178324.342    22178326.407    48171170.583 9 -58941449.626 8
  22426177.466    22426179.639    74491303.551 9 -82597049.002 9
  24204367.739    24204368.879    14483230.647 9 -39131201.395 8
 86  6 12  4 50 29.0800000  0  3G12G13G 7
  22181582.087    22181584.095    48188287.194 9 -58928112.011 8
  22428101.595    22428103.769    74501413.486 9 -82589171.134 8
  24204480.074    24204480.724    14483820.043 9 -39130742.113 9
 86  6 12  4 50 35.0800000  0  3G12G13G 7
  22184842.260    22184844.282    48205419.586 8 -58914762.092 8
  22430026.025    22430028.418    74511525.052 9 -82581291.996 9
  24204599.294    24204600.668    14484446.203 9 -39130254.583 9
 86  6 12  4 50 41.0800000  0  3G12G13G 7
  22188104.933    22188106.435    48222567.719 9 -58901399.918 8
  22431950.572    22431952.086    74521638.346 8 -82573411.509 9
  24204724.381    24204724.569    14485103.732 9 -39129742.228 8
 86  6 12  4 50 47.0800000  0  3G12G13G 7
  22191371.554    22191373.318    48239731.444 9 -58888025.581 9
  22433876.239    22433875.815    74531753.188 9 -82565529.813 9
  24204854.868    24204855.974    14485788.689 9 -39129208.487 8
 86  6 12  4 50 53.0800000  0  3G12G13G 7
  22194640.933    22194642.082    48256910.830 9 -58874639.049 9
  22435801.129    22435802.396    74541869.759 9 -82557646.786 9
  24204989.881    24204991.002    14486498.023 9 -39128655.768 8
 86  6 12  4 50 59.0800000  0  3G12G13G 7
  22197912.716    22197914.575    48274105.788 9 -58861240.382 9
  22437725.790    22437727.338    74551987.926 9 -82549762.504 9
  24205129.101    24205129.378    14487229.434 9 -39128085.832 9
 86  6 12  4 51  5.0800000  0  3G12G13G 7
  22201187.760    22201190.016    48291316.390 9 -58847829.524 9
  22439651.235    22439653.955    74562107.711 9 -82541876.950 8
  24205272.688    24205273.357    14487981.409 9 -39127499.881 8
 86  6 12  4 51 11.0800000  0  3G12G13G 7
  22204466.044    22204469.472    48308542.584 9 -58834406.519 8
  22441577.688    22441577.847    74572229.193 9 -82533990.079 9
  24205419.667    24205420.530    14488755.142 9 -39126896.971 8
 86  6 12  4 51 17.0800000  0  3G12G13G 7
  22207746.699    22207747.690    48325784.253 9 -58820971.452 9
  22443503.983    22443505.637    74582352.332 9 -82526101.927 9
                  24205572.512                   -39126273.226 8
 86  6 12  4 51 23.0800000  0  3G12G13G 7
  22211030.739    22211031.974    48343041.501 9 -58807524.237 9
  22445430.601    22445432.345    74592477.243 9 -82518212.384 9
  24205734.648    24205732.264    14453076.123 6 -39125622.968 8
 86  6 12  4 51 29.0800000  0  3G12G13G 7
  22214317.556    22214319.082    48360314.167 9 -58794065.016 9
  22447357.838    22447359.047    74602603.779 9 -82510321.578 9
  24205896.676    24205897.318    14453948.683 9 -39124943.037 9
 86  6 12  4 51 35.0800000  0  3G12G13G 7
  22217606.753    22217609.805    48377602.276 9 -58780593.765 9
  22449286.004    22449287.127    74612732.004 9 -82502429.464 9
  24206069.797    24206069.625    14454857.194 9 -39124235.113 9
 86  6 12  4 51 41.0800000  0  3G12G13G 7
  22220899.455    22220902.560    48394905.862 9 -58767110.452 8
  22451212.226    22451214.002    74622861.890 9 -82494536.052 9
  24206248.294    24206248.631    14455797.486 9 -39123502.413 9
 86  6 12  4 51 47.0800000  0  3G12G13G 7
  22224196.040    22224198.215    48412224.863 9 -58753615.135 8
  22453140.572    22453142.652    74632993.343 9 -82486641.418 9
  24206432.510    24206433.185    14456764.965 9 -39122748.526 9
 86  6 12  4 51 53.0800000  0  3G12G13G 7
  22227494.805    22227496.770    48429559.227 9 -58740107.828 9
  22455068.875    22455070.669    74643126.509 9 -82478745.448 8
  24206620.848    24206620.201    14457756.571 9 -39121975.853 9
 86  6 12  4 51 59.0800000  0  3G12G13G 7
  22230796.757    22230797.404    48446908.949 9 -58726588.568 9
  22456998.560    22456999.440    74653261.249 9 -82470848.249 9
  24206813.965    24206814.932    14458770.006 9 -39121186.152 8
 86  6 12  4 52  5.0800000  0  3G12G13G 7
  22234100.473    22234102.456    48464273.989 8 -58713057.362 8
  22458926.457    22458927.293    74663397.699 8 -82462949.728 9
  24207011.620    24207010.923    14459804.112 9 -39120380.357 9
 86  6 12  4 52 11.0800000  0  3G12G13G 7
  22237407.355    22237409.921    48481654.377 9 -58699514.200 9
  22460855.706    22460857.708    74673535.817 9 -82455049.889 9
  24207211.777    24207212.874    14460860.018 9 -39119557.580 9
 86  6 12  4 52 17.0800000  0  3G12G13G 7
  22240717.892    22240719.952    48499049.947 9 -58685959.219 8
  22462786.269    22462787.100    74683675.551 9 -82447148.797 9
                  24207418.878                   -39118713.577 8
 86  6 12  4 52 23.0800000  0  3G12G13G 7
  22244031.648    22244033.589    48516460.832 9 -58672392.292 9
  22464714.908    22464715.722    74693817.020 9 -82439246.361 9
  24207535.623    24207630.937    14425705.766 9 -39117842.908 9
 86  6 12  4 52 29.0800000  0  3G12G13G 7
  22247347.217    22247349.143    48533886.943 9 -58658813.499 9
  22466645.438    22466646.952    74703960.084 9 -82431342.674 8
  24207850.140    24207851.031    14426860.882 9 -39116942.613 9
 86  6 12  4 52 35.0800000  0  3G12G13G 7
  22250666.444    22250668.628    48551328.250 9 -58645222.866 9
  22468576.028    22468575.945    74714104.900 9 -82423437.624 8
  24208077.092    24208077.543    14428052.001 9 -39116014.468 8
 86  6 12  4 52 41.0800000  0  3G12G13G 7
  22253988.285    22253989.266    48568784.666 9 -58631620.459 9
  22470506.950    22470507.081    74724251.305 9 -82415531.338 9
  24208309.505    24208310.711    14429274.720 9 -39115061.698 9
 86  6 12  4 52 47.0800000  0  3G12G13G 7
  22257312.692    22257314.781    48586256.233 9 -58618006.256 9
  22472438.440    22472439.451    74734399.302 9 -82407623.822 9
  24208547.626    24208547.185    14430524.501 9 -39114087.829 9
 86  6 12  4 52 53.0800000  0  3G12G13G 7
  22260641.692    22260643.433    48603743.012 9 -58604380.194 8
  22474369.578    22474371.175    74744548.976 9 -82399714.982 8
  24208789.991    24208790.985    14431798.288 9 -39113095.276 8
 86  6 12  4 52 59.0800000  0  3G12G13G 7
  22263971.055    22263972.552    48621244.829 9 -58590742.415 8
  22476301.376    22476302.165    74754700.215 9 -82391804.919 8
  24209036.727    24209036.428    14433093.815 9 -39112085.771 8
 86  6 12  4 53  5.0800000  0  3G12G13G 7
  22267305.058    22267305.754    48638761.788 9 -58577092.842 9
  22478233.198    22478233.902    74764853.222 8 -82383893.495 9
  24209286.467    24209287.919    14434409.841 9 -39111060.304 8
 86  6 12  4 53 11.0800000  0  3G12G13G 7
  22270640.278    22270641.943    48656293.737 9 -58563431.574 8
  22480164.979    22480167.133    74775007.817 8 -82375980.820 9
  24209542.078    24209541.469    14435747.578 9 -39110017.901 8
 86  6 12  4 53 17.0800000  0  3G12G13G 7
  22273979.896    22273982.471    48673840.697 9 -58549758.620 9
  22482099.291    22482099.423    74785164.032 9 -82368066.889 8
                  24209803.062                   -39108954.078 8
 86  6 12  4 53 23.0800000  0  3G12G13G 7
  22277322.032    22277323.725    48691402.722 9 -58536073.922 8
  22484031.144    22484033.328    74795321.951 9 -82360151.634 9
  24209987.249    24210067.839    14400872.690 9 -39107863.461 9
 86  6 12  4 53 29.0800000  0  3G12G13G 7
  22280666.734    22280668.565    48708979.725 9 -58522377.559 9
  22485964.032    22485965.929    74805481.500 9 -82352235.100 9
  24210340.584    24210341.917    14402310.027 9 -39106743.269 8
 86  6 12  4 53 35.0800000  0  3G12G13G 7
  22284014.489    22284016.182    48726571.607 9 -58508669.594 8
  22487898.604    22487898.850    74815642.766 9 -82344317.234 9
  24210621.277    24210622.537    14403783.244 9 -39105595.298 8
 86  6 12  4 53 41.0800000  0  3G12G13G 7
  22287363.746    22287366.612    48744178.381 9 -58494950.033 9
  22489832.681    22489833.277    74825805.587 9 -82336398.150 8
  24210907.113    24210907.583    14405287.517 9 -39104423.136 9
 86  6 12  4 53 47.0800000  0  3G12G13G 7
  22290717.687    22290720.086    48761800.077 8 -58481218.830 9
  22491766.141    22491767.336    74835970.065 9 -82328477.786 9
  24211199.070    24211199.130    14406818.696 9 -39103230.009 9
 86  6 12  4 53 53.0800000  0  3G12G13G 7
  22294073.813    22294075.610    48779436.559 8 -58467476.126 9
  22493700.550    22493701.686    74846136.162 9 -82320556.144 9
  24211495.245    24211495.217    14408373.683 9 -39102018.329 9
 86  6 12  4 53 59.0800000  0  3G12G13G 7
  22297433.578    22297434.503    48797087.870 9 -58453721.842 8
  22495635.355    22495637.203    74856303.895 9 -82312633.243 8
  24211795.076    24211795.137    14409950.533 9 -39100789.611 8
 86  6 12  4 54  5.0800000  0  3G12G13G 7
  22300794.931    22300796.085    48814754.060 9 -58439955.986 8
  22497571.803    22497572.606    74866473.392 9 -82304708.961 8
  24212098.904    24212099.645    14411547.754 9 -39099545.023 9
 86  6 12  4 54 11.0800000  0  3G12G13G 7
  22304159.452    22304160.748    48832435.015 9 -58426178.617 9
  22499506.326    22499508.150    74876644.437 9 -82296783.469 8
  24212406.716    24212407.543    14413166.972 9 -39098283.292 8
 86  6 12  4 54 17.0800000  0  3G12G13G 7
  22307527.306    22307529.094    48850130.769 9 -58412389.712 9
  22501443.054    22501442.584    74886817.196 9 -82288856.647 8
                  24212719.948                   -39097000.048 8
 86  6 12  4 54 23.0800000  0  3G12G13G 7
  22310897.407    22310898.928    48867841.192 9 -58398589.387 9
  22503378.726    22503379.303    74896991.660 9 -82280928.490 9
  24213040.356    24213040.615    14378331.265 9 -39095689.810 8
 86  6 12  4 54 29.0800000  0  3G12G13G 7
  22314270.799    22314271.806    48885566.299 9 -58384777.619 9
  22505315.522    22505316.598    74907167.808 9 -82272999.021 9
  24213367.414    24213367.815    14380050.573 9 -39094350.099 8
 86  6 12  4 54 35.0800000  0  3G12G13G 7
  22317644.745    22317648.412    48903306.092 9 -58370954.392 8
  22507251.656    22507252.916    74917345.577 9 -82265068.301 9
  24213701.473    24213702.082    14381805.342 9 -39092982.730 8
 86  6 12  4 54 41.0800000  0  3G12G13G 7
  22321024.614    22321025.934    48921060.426 9 -58357119.845 8
  22509188.734    22509190.095    74927524.891 9 -82257136.368 9
  24214041.491    24214041.853    14383591.258 9 -39091591.104 8
 86  6 12  4 54 47.0800000  0  3G12G13G 7
  22324405.509    22324406.624    48938829.420 8 -58343273.878 9
  22511125.177    22511126.814    74937705.909 9 -82249203.108 9
  24214386.507    24214387.459    14385404.123 9 -39090178.483 8
 86  6 12  4 54 53.0800000  0  3G12G13G 7
  22327789.332    22327792.179    48956613.029 9 -58329416.528 8
  22513063.337    22513065.312    74947888.444 9 -82241268.667 8
  24214735.986    24214735.787    14387240.639 9 -39088747.432 8
 86  6 12  4 54 59.0800000  0  3G12G13G 7
  22331177.234    22331178.421    48974411.194 9 -58315547.825 8
  22515001.933    22515002.321    74958072.597 9 -82233332.970 8
  24215089.079    24215089.510    14389098.577 9 -39087299.680 9
 86  6 12  4 55  5.0800000  0  3G12G13G 7
  22334566.209    22334568.479    48992223.891 8 -58301667.796 9
  22516939.578    22516941.099    74968258.360 9 -82225396.009 9
  24215447.160    24215446.731    14390976.872 9 -39085836.072 9
 86  6 12  4 55 11.0800000  0  3G12G13G 7
  22337958.885    22337961.283    49010051.115 9 -58287776.455 9
  22518878.646    22518878.935    74978445.725 9 -82217457.805 8
  24215808.504    24215809.061    14392877.267 9 -39084355.252 9
 86  6 12  4 55 17.0800000  0  3G12G13G 7
  22341353.545    22341355.634    49027892.852 8 -58273873.795 9
  22520818.272    22520818.399    74988634.829 9 -82209518.250 8
                  24216175.607                   -39082852.622 8
 86  6 12  4 55 23.0800000  0  3G12G13G 7
  22344751.268    22344753.533    49045748.915 9 -58259959.998 9
  22522756.327    22522757.609    74998825.522 9 -82201577.459 9
  24216548.475    24216550.065    14358318.728 9 -39081322.937 9
 86  6 12  4 55 29.0800000  0  3G12G13G 7
  22348152.172    22348154.084    49063619.445 8 -58246034.906 9
  22524696.565    22524697.766    75009017.842 9 -82193635.386 9
  24216929.908    24216929.821    14360319.694 9 -39079763.741 9
 86  6 12  4 55 35.0800000  0  3G12G13G 7
  22351556.304    22351557.315    49081504.381 9 -58232098.596 9
  22526636.407    22526636.325    75019211.875 9 -82185691.986 8
  24217317.267    24217317.445    14362356.004 9 -39078177.006 9
 86  6 12  4 55 41.0800000  0  3G12G13G 7
  22354962.222    22354963.647    49099403.621 9 -58218151.132 9
  22528576.401    22528577.390    75029407.578 8 -82177747.286 8
  24217710.410    24217710.948    14364423.145 9 -39076566.237 8
 86  6 12  4 55 47.0800000  0  3G12G13G 7
  22358370.042    22358372.726    49117317.255 9 -58204192.458 9
  22530517.089    22530518.286    75039604.841 9 -82169801.369 8
  24218108.766    24218110.415    14366516.915 9 -39074934.731 9
 86  6 12  4 55 53.0800000  0  3G12G13G 7
  22361781.558    22361783.799    49135245.131 9 -58190222.675 8
  22532458.699    22532458.221    75049803.696 9 -82161854.212 9
  24218512.423    24218512.495    14368634.174 9 -39073284.917 9
